Location: Street
(51.1247°N, 2.7429°W)
Time: 06:08:11
(UTC+00:00)

SR - Pass Details

Date: 29 November 2020
Orbit: 575 x 880 km, 66.7° (Epoch: 25 January)

Event Time Altitude Azimuth Distance (km) Brightness Sun altitude
Rises 19:32:40 0° 233° (SW) 2,831 ? -31.2°
Reaches altitude 10° 19:34:53 10° 239° (WSW) 1,960 ? -31.5°
Enters shadow 19:37:19 30° 257° (WSW) 1,121 ? -31.9°
Maximum altitude 19:39:10 50° 315° (NW) 823 - -32.2°
Drops below altitude 10° 19:43:50 10° 31° (NNE) 2,129 - -32.9°
Sets 19:46:20 0° 37° (NE) 3,102 - -33.3°
